Regional Weather Roundup
Issued by NWS Boston, MA

Current Version | Previous Version | Text Only | Print | Product List | Glossary On
Versions: 1 2 3 4 5 6 7 8 9 10 11 12 13 14 15 16 17 18 19 20 21 22 23 24 25 26 27
000 ASUS41 KBOX 020210 RWRBOX REGIONAL WEATHER ROUNDUP NATIONAL WEATHER SERVICE TAUNTON MA 1000 PM EDT SUN MAY 01 2016 NOTE: "FAIR" INDICATES FEW OR NO CLOUDS BELOW 12,000 FEET WITH NO SIGNIFICANT WEATHER AND/OR OBSTRUCTIONS TO VISIBILITY. THE FOLLOWING OBSERVATION LOCATIONS DO NOT REPORT PRESENT WEATHER...PROVINCETOWN... SMITHFIELD...BLOCK ISLAND...KEENE...AND OXFORD. MAZALL-020300- EASTERN MASSACHUSETTS CITY SKY/WX TMP DP RH WIND PRES REMARKS BOSTON CLOUDY 44 37 76 SE5 30.18F BEVERLY CLOUDY 43 35 73 CALM 30.17F LAWRENCE CLOUDY 45 35 68 SE3 30.18F BEDFORD CLOUDY 42 38 85 CALM 30.16F BLUE HILL N/A 39 38 96 CALM 30.14F NORWOOD CLOUDY 42 39 89 CALM 30.17F MARSHFIELD CLOUDY 45 41 87 CALM 30.18F PLYMOUTH LGT RAIN 43 43 100 E6 30.15F TAUNTON LGT RAIN 44 40 85 CALM 30.15F NEW BEDFORD RAIN 43 42 97 E3 30.14F $$ MAZALL-020300- CAPE COD AND THE ISLANDS CITY SKY/WX TMP DP RH WIND PRES REMARKS FALMOUTH CLOUDY 46 45 93 SE8 30.15F HYANNIS LGT RAIN 47 44 90 SE6 30.15F CHATHAM LGT RAIN 46 45 96 E7 30.18F FOG PROVINCETOWN LGT RAIN 45 44 97 E6 30.17F FOG NANTUCKET RAIN 47 45 93 E8 30.16F FOG MARTHAS VNYRD LGT RAIN 47 45 93 E7 30.14F FOG $$ MAZALL-020300- CENTRAL AND WESTERN MASSACHUSETTS CITY SKY/WX TMP DP RH WIND PRES REMARKS WORCESTER CLOUDY 38 36 92 SE6 30.12F FITCHBURG CLOUDY 44 34 67 SE10 30.15F ORANGE CLOUDY 42 34 73 S6 30.14F SPRINGFIELD NOT AVBL WESTFIELD CLOUDY 42 38 85 CALM 30.14F NORTH ADAMS LGT RAIN 43 36 76 E13 30.12R PITTSFIELD CLOUDY 39 36 89 NE3 30.10R $$ RIZALL-020300- RHODE ISLAND CITY SKY/WX TMP DP RH WIND PRES REMARKS PROVIDENCE LGT RAIN 42 40 92 N6 30.16F NEWPORT LGT RAIN 43 42 97 E6 30.13F BLOCK ISLAND LGT RAIN 45 44 97 E10 30.12F FOG SMITHFIELD N/A 39 37 93 NE3 30.14F WESTERLY CLOUDY 44 41 89 NE8 30.13F FOG $$ CTZALL-020300- CONNECTICUT CITY SKY/WX TMP DP RH WIND PRES REMARKS BRADLEY INTL CLOUDY 42 39 89 E5 30.12F HARTFORD LGT RAIN 43 39 86 E6 30.13F BRIDGEPORT CLOUDY 44 41 89 NE7 30.13S FOG DANBURY CLOUDY 41 39 93 E6 30.11F GROTON LGT RAIN 44 44 100 NE7 30.13S NEW HAVEN CLOUDY 43 41 93 N6 30.13F CHESTER N/A 41 41 100 CALM 30.13S FOG MERIDEN CLOUDY 43 39 86 E3 30.12F WILLIMANTIC CLOUDY 44 39 82 NE5 30.14F OXFORD N/A 39 36 87 E3 30.12F $$ MEZ002-015-021-024-NHZ003-005-008-011-012-014-VTZ005-008-020300- NORTHERN NEW ENGLAND CITY SKY/WX TMP DP RH WIND PRES REMARKS PORTLAND ME CLOUDY 45 39 79 SE3 30.19F BANGOR ME CLOUDY 47 34 60 S5 30.20F CONCORD NH CLOUDY 43 36 76 E3 30.15F MANCHESTER NH CLOUDY 45 34 65 SE8 30.14F NASHUA NH CLOUDY 45 34 65 VRB3 30.15F PORTSMOUTH NH NOT AVBL JAFFREY NH CLOUDY 42 32 67 S3 30.13F KEENE NH CLOUDY 45 30 57 S7 30.14S BURLINGTON VT LGT RAIN 46 42 86 S6 30.08S MT. WASHINGTON SNOW 25 25 100 SE38 N/A VSB 0 WCI 6 $$ NYZ052-076-020300- EASTERN NEW YORK CITY SKY/WX TMP DP RH WIND PRES REMARKS ALBANY CLOUDY 45 38 76 VRB7 30.10R NEW YORK CITY CLOUDY 46 42 86 E13 30.10F $$ ANZALL-020300- MARINE OBSERVATIONS STATION/POSITION TIME TEMP WIND PRES VSBY WAVE AIR SEA DIR/SP/G HT/PER (UTC) (F) (DEG/KT/KT) (MB) (MI) (FT/S) BOSTON BUOY 0150 44 47 CALM / 2 1020.9F 3/10 BUZZARDS BAY 0100 44 60/ 9/ 10 1021.8F NANTUCKET SOUND 0150 47 49 100/ 12/ 14 1021.4F 2/11 MASS BAY-STELLWA 0104 45 46 N/A 1 7/8 5/ 9 ISLE OF SHOALS 0100 45 150/ 15/ 16 1021.3F S OF BLOCK IS NOT AVBL $$ ......................KEY......................... SKY/WX - SKY CONDITION/PRESENT WEATHER TMP - TEMPERATURE IN FAHRENHEIT DWPT - DEWPOINT IN FAHRENHEIT RH - RELATIVE HUMIDITY IN PERCENT WIND - DIRECTION AND SPEED IN MPH PRES - MEAN SEA LEVEL PRESSURE IN INCHES OF HG WCI - WIND CHILL INDEX VSB - VISIBILITY IN MILES HX - HEAT INDEX TC - TEMPERATURE IN CELSIUS VRB - VARIABLE WIND DIRECTION N/A - NOT AVAILABLE

USA.gov is the U.S. government's official web portal to all federal, state and local government web resources and services.